Tracking 28790 objects as of 19-Apr-2024
HD Live streaming from Space Station
objects crossing your sky now

FENGYUN 1C DEB

Track FENGYUN 1C DEB now!
10-day predictions


NORAD ID: 31971
Int'l Code: 1999-025CNY
Perigee: 712.0 km
Apogee: 730.6 km
Inclination: 102.3 °
Period: 99.1 minutes
Semi major axis: 7092 km
RCS: 0.0103 m2 (small)
Launch date: May 10, 1999
Source: People's Republic of China (PRC)
Launch site: Taiyaun Space Center, China (TSC)

Note: This is SATELLITE DEBRIS
Your satellite tracking list
Your tracking list is empty




NASA's NSSDC Master Catalog

Two Line Element Set (TLE):
1 31971U 99025CNY 24106.28899561  .00035910  00000-0  85641-2 0  9991
2 31971 102.2609 112.6185 0013099  17.5637 355.0918 14.53523058   746
Source of the keplerian elements: AFSPC